TimeAST,TemperatureF,Dew PointF,Humidity,Sea Level PressureIn,VisibilityMPH,Wind Direction,Wind SpeedMPH,Gust SpeedMPH,PrecipitationIn,Events,Conditions,WindDirDegrees,DateUTC
12:56 AM,75.9,66.9,74,29.94,10.0,Calm,Calm,-,N/A,,Partly Cloudy,0,2013-03-25 04:56:00
1:56 AM,75.0,66.9,76,29.91,10.0,Calm,Calm,-,N/A,,Partly Cloudy,0,2013-03-25 05:56:00
2:56 AM,75.0,66.9,76,29.89,10.0,Calm,Calm,-,N/A,,Partly Cloudy,0,2013-03-25 06:56:00
3:56 AM,75.0,66.9,76,29.89,10.0,Calm,Calm,-,N/A,,Partly Cloudy,0,2013-03-25 07:56:00
4:56 AM,75.0,68.0,79,29.91,10.0,Calm,Calm,-,N/A,,Partly Cloudy,0,2013-03-25 08:56:00
5:56 AM,73.9,68.0,82,29.91,10.0,Calm,Calm,-,N/A,,Partly Cloudy,0,2013-03-25 09:56:00
6:56 AM,73.0,66.9,81,29.94,10.0,Calm,Calm,-,N/A,,Partly Cloudy,0,2013-03-25 10:56:00
7:56 AM,78.1,68.0,71,29.97,10.0,East,4.6,-,N/A,,Partly Cloudy,100,2013-03-25 11:56:00
8:56 AM,82.9,69.1,63,29.99,10.0,East,10.4,-,N/A,,Partly Cloudy,90,2013-03-25 12:56:00
9:56 AM,84.9,69.1,59,30.00,10.0,ENE,9.2,17.3,N/A,,Scattered Clouds,70,2013-03-25 13:56:00
10:56 AM,86.0,70.0,59,30.00,10.0,ENE,15.0,20.7,N/A,,Scattered Clouds,70,2013-03-25 14:56:00
11:56 AM,88.0,71.1,57,29.98,10.0,ENE,18.4,24.2,N/A,,Scattered Clouds,70,2013-03-25 15:56:00
12:56 PM,87.1,70.0,57,29.96,10.0,ENE,17.3,-,N/A,,Scattered Clouds,60,2013-03-25 16:56:00
1:56 PM,88.0,71.1,57,29.94,10.0,ENE,18.4,25.3,N/A,,Scattered Clouds,70,2013-03-25 17:56:00
2:56 PM,84.9,71.1,63,29.92,10.0,ENE,15.0,-,N/A,,Scattered Clouds,70,2013-03-25 18:56:00
3:56 PM,86.0,72.0,63,29.91,10.0,East,15.0,-,N/A,,Scattered Clouds,90,2013-03-25 19:56:00
4:56 PM,84.9,71.1,63,29.91,10.0,East,13.8,21.9,N/A,,Scattered Clouds,100,2013-03-25 20:56:00
5:56 PM,84.9,66.0,53,29.92,10.0,SSE,13.8,-,N/A,,Scattered Clouds,150,2013-03-25 21:56:00
6:56 PM,82.0,68.0,62,29.94,10.0,SE,8.1,-,N/A,,Partly Cloudy,140,2013-03-25 22:56:00
7:56 PM,81.0,69.1,67,29.96,10.0,SE,6.9,-,N/A,,Partly Cloudy,130,2013-03-25 23:56:00
8:56 PM,79.0,71.1,77,29.99,10.0,Calm,Calm,-,N/A,,Partly Cloudy,0,2013-03-26 00:56:00
9:56 PM,77.0,72.0,84,30.00,10.0,East,4.6,-,N/A,,Partly Cloudy,80,2013-03-26 01:56:00
10:56 PM,78.1,70.0,76,30.02,10.0,ESE,4.6,-,N/A,,Partly Cloudy,110,2013-03-26 02:56:00
11:56 PM,78.1,71.1,79,30.01,10.0,Calm,Calm,-,N/A,,Partly Cloudy,0,2013-03-26 03:56:00